Home > Weather > Tiraspol > Past weeks

Flag for Moldova Weather for the Past 2 Weeks in Tiraspol, Moldova

Now
39 °F

Scattered clouds.


Feels Like: 32 °F
Forecast: 24 / 39 °F
Wind: 12 mph from North

Location: Chisinau International Airport

Current Time: Feb 6, 2016 at 3:47:19 PM

Latest Report: Feb 6, 2016 at 3:00 PM


Visibility: N/A

Pressure: 30.33 "Hg

Humidity: 48%

Dew point: 21 °F

Location of TiraspolLocation

Historic Weather in Tiraspol — Graph

°F

Tiraspol Temperature Yesterday

Maximum temperature yesterday: 41 °F (at 2:00 PM)
Minimum temperature yesterday: 32 °F (at 7:30 AM)
Average temperature yesterday: 36 °F

High & Low Weather Summary for the Past Weeks

 TemperatureHumidityPressure
High54 °F (Feb 3, 1:30 PM)100% (Jan 30, 6:00 PM)30.57 "Hg (Jan 30, 6:00 PM)
Low1 °F (Jan 25, 2:00 AM)48% (Feb 6, 2:30 PM)29.74 "Hg (Jan 31, 2:00 PM)
Average33 °F79%30.19 "Hg
* Reported Jan 22 3:00 PM — Feb 6 3:00 PM, Tiraspol, Weather by CustomWeather, © 2016

Note: Actual official high and low records may vary slightly from our data, if they occured in-between our weather recording intervals... More about our weather records

Advertising

Tiraspol Weather History for the Previous 24 Hours

 ConditionsComfort  
Time TempWeatherWind HumidityBarometerVisibility
3:00 PM
Sat, Feb 6
39 °FScattered clouds.12 mph48%30.33 "HgN/A
2:30 PM39 °FScattered clouds.10 mph48%30.33 "HgN/A
2:00 PM37 °FScattered clouds.14 mph52%30.33 "HgN/A
1:30 PM39 °FScattered clouds.12 mph52%30.33 "HgN/A
1:00 PM37 °FScattered clouds.13 mph52%30.33 "HgN/A
12:30 PM37 °FScattered clouds.15 mph52%30.33 "HgN/A
12:00 PM37 °FScattered clouds.13 mph52%30.33 "HgN/A
11:30 AM36 °FScattered clouds.14 mph56%30.33 "HgN/A
11:00 AM36 °FScattered clouds.15 mph56%30.36 "HgN/A
10:30 AM36 °FPartly sunny.16 mph56%30.33 "HgN/A
10:00 AM34 °FPartly sunny.12 mph56%30.33 "HgN/A
9:30 AM34 °FPartly sunny.13 mph56%30.33 "HgN/A
9:00 AM34 °FPartly sunny.12 mph60%30.33 "HgN/A
8:30 AM34 °FPartly sunny.12 mph60%30.33 "HgN/A
8:00 AM34 °FPartly sunny.9 mph60%30.30 "HgN/A
7:30 AM32 °FOvercast.7 mph64%30.30 "HgN/A
7:00 AM32 °FOvercast.7 mph64%30.30 "HgN/A
6:00 AM32 °FOvercast.8 mph64%30.27 "HgN/A
5:30 AM32 °FOvercast.6 mph69%30.27 "HgN/A
5:00 AM32 °FOvercast.6 mph69%30.27 "HgN/A
4:00 AM34 °FPassing clouds.9 mph65%30.27 "HgN/A
3:30 AM34 °FPassing clouds.12 mph60%30.27 "HgN/A
2:30 AM34 °FOvercast.8 mph65%30.24 "HgN/A
2:00 AM36 °FOvercast.12 mph56%30.24 "HgN/A
1:30 AM36 °FOvercast.12 mph56%30.24 "HgN/A
1:00 AM36 °FOvercast.12 mph60%30.24 "HgN/A
12:30 AM36 °FPassing clouds.12 mph60%30.24 "HgN/A
12:00 AM36 °FPassing clouds.9 mph60%30.24 "HgN/A
11:30 PM
Fri, Feb 5
36 °FPassing clouds.7 mph60%30.24 "HgN/A
11:00 PM36 °FPassing clouds.8 mph65%30.21 "HgN/A
10:30 PM36 °FPassing clouds.8 mph65%30.21 "HgN/A
10:00 PM36 °FPassing clouds.8 mph70%30.21 "HgN/A
9:30 PM36 °FPassing clouds.12 mph75%30.21 "HgN/A
9:00 PM36 °FPassing clouds.8 mph75%30.21 "HgN/A
8:30 PM36 °FPassing clouds.9 mph75%30.18 "HgN/A
8:00 PM36 °FPassing clouds.9 mph75%30.18 "HgN/A
7:30 PM36 °FPassing clouds.10 mph75%30.18 "HgN/A
7:00 PM37 °FPassing clouds.10 mph70%30.18 "HgN/A
6:30 PM37 °FPassing clouds.9 mph75%30.15 "HgN/A
6:00 PM37 °FPassing clouds.6 mph70%30.15 "HgN/A
5:30 PM37 °FPassing clouds.7 mph75%30.15 "HgN/A
5:00 PM39 °FPartly sunny.8 mph65%30.12 "HgN/A
4:30 PM39 °FPartly sunny.12 mph70%30.12 "HgN/A
4:00 PM39 °FScattered clouds.10 mph65%30.12 "HgN/A
3:30 PM41 °FScattered clouds.10 mph61%30.12 "HgN/A
3:00 PM41 °FScattered clouds.12 mph61%30.12 "HgN/A
Weather by CustomWeather, © 2016

See weather overviewHow to use our weather pages